Tracking 28091 objects as of 30-Sep-2023
HD Live streaming from Space Station
objects crossing your sky now

STARLINK-4462

Track STARLINK-4462 now!
10-day predictions
STARLINK-4462 is classified as:


NORAD ID: 53781
Int'l Code: 2022-111J
Perigee: 545.7 km
Apogee: 548.0 km
Inclination: 53.2 °
Period: 95.4 minutes
Semi major axis: 6917 km
RCS: Unknown
Launch date: September 11, 2022
Source: United States (US)
Launch site: AIR FORCE EASTERN TEST RANGE (AFETR)
Your satellite tracking list
Your tracking list is empty




NASA's NSSDC Master Catalog

Two Line Element Set (TLE):
1 53781U 22111J   23272.61778251  .00006287  00000-0  41272-3 0  9996
2 53781  53.2161 318.7844 0001684  99.7988 260.3194 15.08843651 58210
Source of the keplerian elements: AFSPC